Starlink 32268

operational
NORAD ID: 60372 Int'l Des: 2024-138 Owner: SPXS Country: US Constellation: starlink
LEOCIRCULAR

关于 Starlink 32268

正在加载描述...

实时位置

正在加载3D地球...

即将过境

高度历史

Altitude vs Time

uPlot chart will show altitude changes over time

两行轨道根数

1 60372U 24138T 25354.92136386 -.00003549 00000-0 -10783-3 0 9998
2 60372 53.1614 315.7670 0000403 299.7037 60.3924 15.30189815 78564
Epoch: Dec 20, 2025 • Age: 10 hours

当前状态

高度 475.8 km
速度 7.63 km/s
星下点 18.22°N, 93.56°W
发射日期 Aug 4, 2024
运行时间 1.3 years
类型 internet

技术详情

分类 Payload
质量 730.00 kg
干质量 700.00 kg
总质量 730.00 kg
长度 0.30 m
直径 4.10 m
跨度 29.00 m
形状 Box + pan
制造商 SPXS
平台类型 Starlink V2M
阶段状态 In Orbit
所有者/国家 SPXS/US

大型星座

Loading constellations...